Location: Newark
(29.9790°N, 31.1340°E)
Time: 15:37:19
(UTC+00:00)

deb Explorer IX - All Passes

Search period start: 19 January 2020 00:00
Search period end: 29 January 2020 00:00
Orbit: 548 x 1101 km, 38.8° (Epoch: 19 January)

Date Brightness Start Highest point End Pass type
(mag) Time Alt. Az. Time Alt. Az. Time Alt. Az.
19 Jan - 01:41:31 10° WNW 01:47:53 43° N 01:53:25 10° E visible
19 Jan - 03:29:20 10° WNW 03:35:33 86° SSW 03:40:47 10° ESE visible
19 Jan - 05:18:14 10° W 05:21:57 19° SW 05:25:20 10° S daylight
19 Jan - 19:54:54 10° SSW 20:01:35 43° SE 20:08:21 10° ENE night (unlit)
19 Jan - 21:41:41 10° WSW 21:49:00 71° NNW 21:56:02 10° ENE night (unlit)
19 Jan - 23:30:25 10° WNW 23:37:10 41° N 23:43:22 10° ENE night (unlit)
20 Jan - 01:19:02 10° WNW 01:25:33 44° N 01:31:15 10° E visible
20 Jan - 03:06:53 10° WNW 03:13:15 85° SSW 03:18:38 10° ESE visible
20 Jan - 04:55:48 10° W 04:59:42 19° SW 05:03:12 10° S daylight
20 Jan - 19:32:30 10° SSW 19:39:08 43° SE 19:45:58 10° ENE night (unlit)
20 Jan - 21:19:16 10° WSW 21:26:34 71° NNW 21:33:42 10° ENE night (unlit)
20 Jan - 23:07:58 10° WNW 23:14:47 41° N 23:21:07 10° ENE night (unlit)
21 Jan - 00:56:33 10° WNW 01:03:12 45° NNE 01:09:05 10° E visible
21 Jan - 02:44:23 10° WNW 02:50:56 84° SSW 02:56:30 10° ESE visible
21 Jan - 04:33:22 10° W 04:37:24 19° SW 04:41:04 10° S daylight
21 Jan - 19:10:08 10° SSW 19:16:42 44° SE 19:23:34 10° ENE visible
21 Jan - 20:56:53 10° WSW 21:04:08 70° NNW 21:11:20 10° ENE night (unlit)
21 Jan - 22:45:31 10° WNW 22:52:22 42° N 22:58:50 10° ENE night (unlit)
22 Jan - 00:34:03 10° WNW 00:40:50 46° NNE 00:46:52 10° E visible
22 Jan - 02:21:54 10° WNW 02:28:36 83° SSW 02:34:19 10° ESE visible
22 Jan - 04:10:54 10° W 04:15:06 20° SW 04:18:53 10° S visible
22 Jan - 18:47:47 10° SSW 18:54:15 44° SE 19:01:07 10° ENE visible
22 Jan - 20:34:30 10° WSW 20:41:41 69° NNW 20:48:56 10° ENE night (unlit)
22 Jan - 22:23:05 10° WNW 22:29:57 42° N 22:36:32 10° ENE night (unlit)
23 Jan - 00:11:34 10° WNW 00:18:27 47° NNE 00:24:39 10° E visible
23 Jan - 01:59:24 10° WNW 02:06:15 81° SSW 02:12:08 10° ESE visible
23 Jan - 03:48:26 10° W 03:52:46 20° SW 03:56:42 10° S visible
23 Jan - 18:25:26 10° SSW 18:31:49 45° SE 18:38:40 10° ENE visible
23 Jan - 20:12:08 10° WSW 20:19:14 68° NNW 20:26:32 10° ENE night (unlit)
23 Jan - 22:00:40 10° WNW 22:07:32 42° N 22:14:11 10° ENE night (unlit)
23 Jan - 23:49:04 10° WNW 23:56:02 48° NNE 00:02:24 10° E night (unlit)
24 Jan - 01:36:54 10° WNW 01:43:52 81° SSW 01:49:55 10° ESE visible
24 Jan - 03:25:56 10° W 03:30:26 20° SW 03:34:30 10° S visible
24 Jan - 18:03:07 10° SSW 18:09:22 45° SE 18:16:12 10° ENE visible
24 Jan - 19:49:47 10° WSW 19:56:46 68° NNW 20:04:05 10° ENE visible
24 Jan - 21:38:15 10° WNW 21:45:06 42° N 21:51:51 10° ENE night (unlit)
24 Jan - 23:26:36 10° WNW 23:33:37 48° NNE 23:40:08 10° E night (unlit)
25 Jan - 01:14:23 10° WNW 01:21:28 80° SSW 01:27:41 10° SE visible
25 Jan - 03:03:26 10° W 03:08:04 20° SW 03:12:17 10° S visible
25 Jan - 17:40:48 10° SSW 17:46:57 45° SE 17:53:42 10° ENE visible
25 Jan - 19:27:27 10° WSW 19:34:19 67° NNW 19:41:38 10° ENE visible
25 Jan - 21:15:50 10° WNW 21:22:39 42° N 21:29:27 10° ENE night (unlit)
25 Jan - 23:04:06 10° WNW 23:11:11 49° NNE 23:17:49 10° E night (unlit)
26 Jan - 00:51:52 10° WNW 00:59:03 79° SSW 01:05:25 10° SE visible
26 Jan - 02:40:56 10° W 02:45:41 21° SW 02:50:02 10° S visible
26 Jan - 17:18:30 10° SW 17:24:30 46° SE 17:31:12 10° ENE visible
26 Jan - 19:05:07 10° WSW 19:11:52 66° NNW 19:19:09 10° ENE visible
26 Jan - 20:53:27 10° WNW 21:00:11 42° N 21:07:02 10° ENE night (unlit)
26 Jan - 22:41:39 10° WNW 22:48:44 50° NNE 22:55:29 10° E night (unlit)
27 Jan - 00:29:22 10° WNW 00:36:37 78° SSW 00:43:08 10° SE visible
27 Jan - 02:18:25 10° W 02:23:17 21° SW 02:27:46 10° S visible
27 Jan - 16:56:13 10° SW 17:02:04 46° SE 17:08:41 10° ENE visible
27 Jan - 18:42:49 10° WSW 18:49:24 65° NNW 18:56:39 10° ENE visible
27 Jan - 20:31:04 10° WNW 20:37:44 42° N 20:44:36 10° ENE night (unlit)
27 Jan - 22:19:11 10° WNW 22:26:17 50° NNE 22:33:08 10° E night (unlit)
28 Jan - 00:06:52 10° WNW 00:14:09 77° SSW 00:20:49 10° SE night (unlit)
28 Jan - 01:55:54 10° W 02:00:52 21° SW 02:05:28 10° S visible
28 Jan - 16:33:57 10° SW 16:39:39 46° SE 16:46:10 10° ENE visible
28 Jan - 18:20:31 10° WSW 18:26:58 64° NNW 18:34:08 10° ENE visible
28 Jan - 20:08:42 10° WNW 20:15:16 41° N 20:22:08 10° ENE visible
28 Jan - 21:56:44 10° WNW 22:03:48 51° NNE 22:10:45 10° E night (unlit)
28 Jan - 23:44:21 10° WNW 23:51:41 76° SSW 23:58:28 10° SE night (unlit)
